Location: Unspecified
(0.0000°N, 0.0000°E)
Time: 02:27:27
(UTC+00:00)

CZ-3B DEB - Pass Details

Date: 17 February 2026
Orbit: 716 x 41326 km, 26.5° (Epoch: 4 March)

Event Time Altitude Azimuth Distance (km) Brightness Sun altitude
Rises 22:06:47 0° 315° (NW) 4,532 ? -56.3°
Enters shadow 22:07:44 - 318° (NW) 4,284 ? -56.5°
Exits shadow 22:49:08 39° 97° (E) 13,127 ? -65.9°
Maximum altitude 06:25:41 59° 177° (S) 37,986 ? 2.9°
Drops below altitude 10° 10:12:10 10° 86° (E) 6,421 ? 57.6°
Sets 10:14:50 0° 82° (E) 6,622 ? 58.3°
